Location: Praha
(50.0830°N, 14.4670°E)
Time: 12:30:47
(UTC+02:00)

ISS - Pass Details

Date: 11 July 2019
Orbit: 409 x 418 km, 51.6° (Epoch: 21 July)

Event Time Altitude Azimuth Distance (km) Brightness Sun altitude
Exits shadow 02:27:02 28° 246° (WSW) 813 -2.7 -15.6°
Maximum altitude 02:28:39 81° 162° (SSE) 421 -3.9 -15.6°
Drops below altitude 10° 02:31:59 10° 75° (ENE) 1,480 -0.5 -15.4°
Sets 02:34:04 0° 74° (ENE) 2,342 0.6 -15.3°
